Showing default

SECOR 7 (EGRS 7), 2411

Orbit data source: Space-Track

SECOR 7 (EGRS 7), 2411 is an American payload satellite in LEO that was launched on Fri, 19 Aug 1966 UTC via an ATLAS SLV-3 AGENA D launch vehicle from the Air Force Western Test Range (AFWTR). Payloads include a variety of satellites, spacecraft, and rockets equipped with specific instruments for various scientific and technological missions. These include communications satellites like Starlink; space stations such as the ISS; scientific satellites like the Hubble; Earth observation satellites from companies like Planet Labs, Umbra, and HawkEye 360; GPS; miniature CubeSats for education and research; and military/defense satellites.

Loading next visibility...
SECOR 7 (EGRS 7) details
Identifier
2411, 1966-077B
Orbit
LEO
Last TLE update21 hours ago
Origin
Flag of USACE/GIMR (US)
ManufacturerITT
MissionDefense Geodetic
Bus & MotorSECOR, Unknown motor
Mass18 kg wet, 18 kg dry
Launch date (UTC)
1966-08-19 (58 years ago)
Launch vehicle
ATLAS SLV-3 AGENA D
Launch site
Air Force Western Test Range (AFWTR)
Object type
Payload
Rocket body
Debris
Shape & HBRBox, 0.36 m
Radar Cross Section0.095 m², Medium (>0.1 m² and < 1m²)

Expand to show TLE details & history

TLE from 21 hours ago
0 SECOR 7 (EGRS 7)
1 02411U 66077B   24355.77304453  .00000023  00000-0  10702-1 0  9992
2 02411  90.3363 271.0899 0013166 247.0313 112.9150  8.59615544830688
Epoch: 2024-12-20T18:33Z
Definitive object data (Epoch: 2024-12-20T18:33:11.047Z)
Latitude0.00003°
Longitude-97.03988°
Altitude3,695.427 km
Speed6.289 km/s
True Right ascension18h 04m 21s
True Declination0° 00' 00"
Sunlit
Object was in daylight at TLE epoch
Visualization TLE readout
Latitude43.44004°
Longitude83.28751°
Altitude3,698.59 km
Speed6.292 km/s
Apparent Right ascension04h 34m 11s
Apparent Declination14° 47' 42"
Sunlit
Object is in full shadow
Visualization observer readout
Local Sidereal Time14:12:07
Azimuth321.286° NNW
Elevation-26.085°
Doppler factor1
Orbital elements
Apogee altitude3,699.135 km
Perigee altitude3,672.634 km
Semi-major axis10,064.022 km
Eccentricity0.0013166
Inclination90.3363°
RAAN271.0899°
Arg. of periapsis247.0313°
True anomaly113.05388°
Mean anomaly112.915°
Eccentric anomaly112.98445°
Mean motion2.14974 °/min
BSTAR0.010702
Orbital period167.46 mins
Loading maneuver chart data...
Loading historical data...
Loading historical data...
Loading historical data...
Loading historical data...
Loading historical data...
Loading historical data...
Loading historical data...

SECOR 7 (EGRS 7) Visibility forecast

Observer location: undefined°, undefined

Span
Click to sort rows by Start time (UTC) header in descending order
Start Az.
Max El. time (UTC)
Max El. Az.
Max El.
End time (UTC)
End Az.
32 mins2024-12-21 16:58:52.132Z128.235° SE2024-12-21 17:14:52.132Z65.582° ENE33.667°2024-12-21 17:30:52.132Z5.663° NNE
35 mins2024-12-21 19:42:52.132Z197.103° SSW2024-12-21 19:59:52.132Z274.443° WNW40.977°2024-12-21 20:17:52.132Z353.557° N
32 mins2024-12-22 04:52:52.132Z12.933° NNE2024-12-22 05:08:52.132Z78.16° E32.413°2024-12-22 05:24:52.132Z141.07° SSE
35 mins2024-12-22 07:38:52.132Z357.432° N2024-12-22 07:55:52.132Z286.584° WNW41.482°2024-12-22 08:13:52.132Z209.596° SW
13 mins2024-12-22 10:29:52.132Z337.158° NNW2024-12-22 10:35:52.132Z317.081° NNW13.344°2024-12-22 10:42:52.132Z293.712° NW
|